User: anonymous   Login
Location: Columbia
(38.9520°N, 92.3340°W)
Time: 08:47:49
(UTC-05:00)
Language:

Cosmos 2219 Rocket - Orbit

View from above orbital plane
View from above orbital plane
View from above satellite
View from above satellite

Ground track
Ground track

The orbit data is extracted from the following two-line orbital elements,

1 22220U 92076B   16274.23002304 -.00000268  00000-0 -11060-3 0  9995
2 22220  70.9989 246.4379 0014900 303.2732 147.5895 14.16403355233965
Epoch (UTC): 30 September 2016 05:31:13
Eccentricity: 0.0014900
inclination: 70.9989°
perigee height: 827 km
apogee height: 848 km
right ascension of ascending node: 246.4379°
argument of perigee: 303.2732°
revolutions per day: 14.16403355
mean anomaly at epoch: 147.5895°
orbit number at epoch: 23396

The dashed part of the orbit path shows where the satellite is in the earth's shadow,  

DLR